Flag for Cuba Weather past 2 weeks in Holguín, Cuba

Now
73 °F

Passing clouds.


Feels Like: 72 °F
Forecast: 73 / 92 °F
Wind: 1 mph from North

Location: Holguin Civ / Mil

Current Time: Sep 3, 2015 at 10:29:49 PM

Latest Report: Sep 3, 2015 at 9:50 PM


Visibility: 5 mi

Pressure: 29.98 "Hg

Humidity: 89%

Dew point: 70 °F

Location of HolguínLocation

Historic Weather in Holguín — Graph

°F

Holguín temperature yesterday

Maximum temperature yesterday: 97 °F (at 2:50 PM)
Minimum temperature yesterday: 77 °F (at 4:50 AM)
Average temperature yesterday: 85 °F

Past Weeks' High & Low Weather Summary

 TemperatureHumidityPressure
High97 °F (Aug 24, 2:50 PM)94% (Aug 23, 6:50 AM)30.04 "Hg (Aug 23, 6:50 AM)
Low72 °F (Aug 24, 6:50 AM)30% (Sep 2, 2:50 PM)29.83 "Hg (Aug 24, 3:50 PM)
Average82 °F71%29.95 "Hg
* Reported Aug 19 8:53 PM — Sep 3 8:50 PM, Holguín, Weather by CustomWeather, © 2015

Note: Actual official high and low records may vary slightly from our data, if they occured in-between our weather recording intervals... More about our weather records

Advertising

Holguín weather history for previous 24 hours

 ConditionsComfort  
Time TempWeatherWind HumidityBarometerVisibility
8:50 PM
Thu, Sep 3
73 °FPartly cloudy.1 mph89%29.95 "Hg5 mi
6:52 PM75 °FLight rain. Broken clouds.6 mph83%N/A4 mi
5:51 PM75 °FLight rain. Broken clouds.7 mph78%N/A4 mi
4:52 PMN/AStrong thunderstorms.32 mphN/AN/A2 mi
4:04 PM90 °FThunderstorms. Partly sunny.12 mph55%N/A5 mi
2:50 PM97 °FPartly sunny.3 mph32%29.89 "HgN/A
1:50 PM95 °FScattered clouds.6 mph36%29.92 "HgN/A
12:50 PM91 °FScattered clouds.7 mph46%29.95 "HgN/A
11:55 AM91 °FScattered clouds.7 mph46%29.98 "HgN/A
10:50 AM88 °FScattered clouds.7 mph55%29.98 "HgN/A
9:50 AM84 °FScattered clouds.8 mph70%29.98 "Hg6 mi
8:50 AM75 °FFog.3 mph94%29.98 "Hg2 mi
7:55 AM73 °FFog.5 mph94%N/A4 mi
6:53 AM73 °FFog.2 mph89%29.95 "Hg4 mi
5:50 AM73 °FPassing clouds.2 mph89%29.95 "Hg5 mi
4:50 AM73 °FPassing clouds.No wind94%29.95 "Hg5 mi
3:50 AM75 °FPassing clouds.2 mph89%29.95 "Hg6 mi
2:50 AM75 °FPassing clouds.1 mph89%29.95 "Hg6 mi
1:51 AM77 °FPassing clouds.5 mph89%29.95 "HgN/A
12:50 AM79 °FPassing clouds.5 mph84%29.98 "HgN/A
11:50 PM
Wed, Sep 2
79 °FPassing clouds.7 mph84%30.01 "HgN/A
10:51 PM81 °FPassing clouds.7 mph79%29.98 "HgN/A
Weather by CustomWeather, © 2015

See weather overviewHow to use our weather pages